Location: Peterborough
(44.3091°N, 78.3197°W)
Time: 16:05:11
(UTC-04:00)

Transit 4A - Pass Details

Date: 28 March 2023
Orbit: 864 x 980 km, 66.8° (Epoch: 04 June)

Event Time Altitude Azimuth Distance (km) Brightness Sun altitude
Rises 07:28:17 0° 224° (SW) 3,433 10.4 3.8°
Reaches altitude 10° 07:30:47 10° 228° (SW) 2,504 9.7 4.3°
Maximum altitude 07:36:27 56° 307° (NW) 1,032 8.0 5.3°
Drops below altitude 10° 07:42:17 10° 25° (NNE) 2,568 10.6 6.4°
Sets 07:44:53 0° 30° (NNE) 3,528 11.3 6.8°
